Reading, PA

8:03 AM EDT on August 25, 2019 (GMT -0400)
Reading Regional-Spaatz

Weather History for KRDG - July, 2019

Change the Weather History Date:

Monday, July 22, 2019

  Actual Average Record
Temperature  
Mean Temperature 80 °F 75 °F  
Max Temperature 90 °F 85 °F 106 °F (2011)
Min Temperature 70 °F 64 °F 55 °F (1974)
Degree Days  
Heating Degree Days 0 0  
Month to date heating degree days 0 0  
Since 1 June heating degree days 16 24  
Since 1 July heating degree days 0 0  
Cooling Degree Days 15 10  
Month to date cooling degree days 314 217  
Year to date cooling degree days 624 466  
Since 1 June cooling degree days 519 406  
Growing Degree Days 30 (Base 50)    
Moisture  
Dew Point 74 °F    
Average Humidity 82    
Maximum Humidity 100    
Minimum Humidity 63    
Precipitation  
Precipitation 0.56 in 0.16 in 2.19 in (2013)
Month to date precipitation 6.64 3.23  
Year to date precipitation 38.00 24.03  
Sea Level Pressure  
Sea Level Pressure 29.79 in    
Wind  
Wind Speed 5 mph (West)    
Max Wind Speed 30 mph    
Max Gust Speed 37 mph    
Visibility 10 miles    
Events Rain , Thunderstorm    
T = Trace of Precipitation, MM = Missing Value Source: NWS Daily Summary

Daily Weather History Graph

Daily Weather History Graph

Search for Another Location

Airport or City:

Astronomy

Jul. 22, 2019 Rise Set
Actual Time 5:52 AM EDT 8:28 PM EDT
Civil Twilight 5:20 AM EDT 8:59 PM EDT
Nautical Twilight 4:41 AM EDT 9:38 PM EDT
Astronomical Twilight 3:56 AM EDT 10:22 PM EDT
Moon 11:46 PM EDT (7/22) 11:07 AM EDT (7/22)
Length of Visible Light 15h 38m
Length of Day
14h 35m
Waning Gibbous, 72% of the Moon is Illuminated
Jul 22
Waning Gibbous
Jul 24
Last Quarter
Jul 31
New
Aug 7
First Quarter
Aug 15
Full

Hourly Weather History & Observations

Time (EDT) Temp. Heat Index Dew Point Humidity Pressure Visibility Wind Dir Wind Speed Gust Speed Precip Events Conditions
12:54 AM 75.0 °F - 73.0 °F 94% 29.87 in 10.0 mi NNE 9.2 mph - 0.00 in Rain Light Rain
1:54 AM 75.0 °F - 73.0 °F 94% 29.88 in 10.0 mi South 5.8 mph - 0.00 in   Clear
2:54 AM 75.0 °F - 73.9 °F 96% 29.86 in 10.0 mi Calm Calm - N/A   Clear
3:54 AM 75.0 °F - 73.9 °F 96% 29.86 in 10.0 mi Calm Calm - N/A   Clear
4:54 AM 73.9 °F - 73.9 °F 100% 29.86 in 10.0 mi Calm Calm - N/A   Clear
5:54 AM 73.9 °F - 73.9 °F 100% 29.85 in 10.0 mi Calm Calm - N/A   Clear
6:54 AM 75.0 °F - 75.0 °F 100% 29.86 in 10.0 mi Calm Calm - N/A   Clear
7:54 AM 77.0 °F - 75.0 °F 94% 29.86 in 10.0 mi NNW 3.5 mph - N/A   Clear
8:54 AM 81.0 °F 86.7 °F 75.0 °F 82% 29.85 in 10.0 mi Calm Calm - N/A   Partly Cloudy
9:54 AM 82.9 °F 90.2 °F 75.0 °F 77% 29.84 in 10.0 mi Variable 3.5 mph - N/A   Scattered Clouds
10:54 AM 84.9 °F 94.1 °F 75.9 °F 74% 29.82 in 10.0 mi SW 3.5 mph - N/A   Partly Cloudy
11:54 AM 87.1 °F 95.4 °F 73.9 °F 65% 29.81 in 10.0 mi SW 8.1 mph - N/A   Mostly Cloudy
12:54 PM 88.0 °F 97.5 °F 75.0 °F 65% 29.79 in 10.0 mi Variable 5.8 mph - N/A   Mostly Cloudy
1:54 PM 88.0 °F 96.5 °F 73.9 °F 63% 29.76 in 10.0 mi SW 11.5 mph - N/A   Partly Cloudy
2:54 PM 89.1 °F 99.1 °F 75.0 °F 63% 29.74 in 10.0 mi SW 11.5 mph - N/A   Scattered Clouds
3:54 PM 88.0 °F 97.5 °F 75.0 °F 65% 29.71 in 10.0 mi SSW 10.4 mph - N/A   Scattered Clouds
4:28 PM 88.0 °F 97.5 °F 75.0 °F 65% 29.70 in 10.0 mi West 8.1 mph - N/A Thunderstorm Thunderstorm
4:54 PM 75.0 °F - 73.9 °F 96% 29.73 in 10.0 mi NW 8.1 mph 34.5 mph 0.15 in Rain , Thunderstorm Heavy Thunderstorms and Rain
5:10 PM 75.9 °F - 75.0 °F 97% 29.72 in 5.0 mi WNW 10.4 mph - 0.01 in Rain , Thunderstorm Light Rain
5:37 PM 77.0 °F - 75.0 °F 94% 29.72 in 5.0 mi Variable 3.5 mph - 0.01 in   Scattered Clouds
5:54 PM 77.0 °F - 75.9 °F 96% 29.74 in 10.0 mi South 3.5 mph - 0.01 in   Scattered Clouds
6:54 PM 79.0 °F - 75.0 °F 88% 29.74 in 10.0 mi SW 9.2 mph - 0.00 in Rain Light Rain
7:54 PM 79.0 °F - 75.0 °F 88% 29.74 in 10.0 mi SW 6.9 mph - 0.00 in   Clear
8:31 PM 78.1 °F - 75.0 °F 90% 29.75 in 10.0 mi SSW 6.9 mph - N/A Thunderstorm Scattered Clouds
8:54 PM 73.9 °F - 72.0 °F 93% 29.78 in 10.0 mi WNW 12.7 mph 29.9 mph 0.09 in Rain , Thunderstorm Light Thunderstorms and Rain
9:01 PM 73.0 °F - 73.0 °F 100% 29.78 in 10.0 mi WNW 13.8 mph - 0.01 in Rain , Thunderstorm Light Thunderstorms and Rain
9:09 PM 73.0 °F - 73.0 °F 100% 29.78 in 10.0 mi WNW 6.9 mph - 0.03 in Rain , Thunderstorm Light Rain
9:22 PM 73.0 °F - 72.0 °F 96% 29.77 in 10.0 mi Calm Calm - 0.03 in   Overcast
9:40 PM 73.0 °F - 72.0 °F 96% 29.77 in 10.0 mi Calm Calm - 0.03 in   Overcast
9:54 PM 73.0 °F - 73.0 °F 100% 29.78 in 10.0 mi Calm Calm - 0.03 in Rain Light Rain
10:01 PM 73.0 °F - 73.0 °F 100% 29.77 in 10.0 mi Calm Calm - 0.00 in Rain Light Rain
10:40 PM 73.0 °F - 73.0 °F 100% 29.77 in 10.0 mi WSW 3.5 mph - 0.00 in   Overcast
10:54 PM 73.9 °F - 73.0 °F 97% 29.78 in 10.0 mi WSW 4.6 mph - 0.00 in   Overcast
11:13 PM 73.0 °F - 73.0 °F 100% 29.79 in 10.0 mi WSW 4.6 mph - 0.00 in Rain Light Rain
11:23 PM 73.0 °F - 73.0 °F 100% 29.79 in 10.0 mi North 8.1 mph - 0.02 in Rain Heavy Rain
11:30 PM 72.0 °F - 71.1 °F 97% 29.79 in 10.0 mi NNW 8.1 mph - 0.05 in Rain Heavy Rain
11:54 PM 71.1 °F - 71.1 °F 100% 29.80 in 10.0 mi NW 10.4 mph - 0.16 in Rain Heavy Rain